Location: Ailingen
(47.6833°N, 9.5000°E)
Time: 12:40:26
(UTC+00:00)

Cosmos 968 Rocket - Pass Details

Date: 18 November 2025
Orbit: 735 x 766 km, 74.0° (Epoch: 11 December)

Event Time Altitude Azimuth Distance (km) Brightness Sun altitude
Rises 18:15:00 0° 192° (SSW) 3,174 6.9 -25.5°
Reaches altitude 10° 18:17:21 10° 189° (S) 2,260 6.0 -25.9°
Enters shadow 18:20:22 36° 177° (S) 1,183 4.4 -26.4°
